Вернуться в каталог

NOAA 16 DEB

АктивенSSO
NORAD 41279·DEBRIS·🇺🇸 United States

Запущен Sep 21, 2000 с Vandenberg Space Force Base

Loading…

Ближайшие Пролёты (ближайшие 24 часа)

TLE

СвежийSource: Space-Track

Эпоха: Sep 12, 2026, 02:39 UTC

1 41279U 00055GF  26255.11080151  .00001437  00000-0  72428-3 0  9991
2 41279  98.7446 313.2193 0030458  27.3688 332.9084 14.17655173551087

Отслеживайте NOAA 16 DEB в реальном времени с AllMySat

Download on the App Store